Location: Audrecelles
(50.8240°N, 1.5923°E)
Time: 03:20:01
(UTC+00:00)

Cosmos 44 - Pass Details

Date: 17 October 2025
Orbit: 576 x 774 km, 65.1° (Epoch: 13 November)

Event Time Altitude Azimuth Distance (km) Brightness Sun altitude
Exits shadow 03:49:20 14° 336° (NNW) 1,930 5.5 -24.4°
Maximum altitude 03:52:53 29° 31° (NNE) 1,311 5.1 -23.8°
Drops below altitude 10° 03:57:24 10° 92° (E) 2,264 6.9 -23.1°
Sets 04:00:08 0° 103° (ESE) 3,210 7.8 -22.7°
